When you browse on this site, cookies collect data to enhance your experience and personalize the content and advertising you see.
Visit our Privacy Policy to learn more. By continuing to use the site, you agree to this use of cookies and data.
  • In Österreich
  • Länderverzeichnis
  • Für 7 Tage
  • Wassertemperatur
  • Satellitenkarten
  • Wetterkarte
  • News
  • Widgets
  • user-avatar
    Anmelden

    Stündliche Wetter Bolshie Steblevichi

    Heute, 24 Mai, Freitag

    Zeit Temperatur Niederschläge Wind Luftdruck Luftfeuchtigkeit
    00:00 +16°C° 0 mm 2 m/S 745 mmHg 89%
    01:00 +15°C° 0 mm 1 m/S 745 mmHg 90%
    02:00 +15°C° 0 mm 1 m/S 745 mmHg 91%
    03:00 +15°C° 0 mm 1 m/S 745 mmHg 92%
    04:00 +14°C° 0 mm 2 m/S 745 mmHg 93%
    05:00 +14°C° 0 mm 2 m/S 745 mmHg 94%
    06:00 +16°C° 0 mm 2 m/S 745 mmHg 89%
    07:00 +18°C° 0 mm 2 m/S 746 mmHg 85%
    08:00 +19°C° 0 mm 2 m/S 746 mmHg 80%
    09:00 +20°C° 0.4 mm 2 m/S 746 mmHg 77%
    10:00 +21°C° 0.4 mm 2 m/S 745 mmHg 73%
    11:00 +22°C° 0.4 mm 3 m/S 745 mmHg 70%
    12:00 +24°C° 0 mm 3 m/S 745 mmHg 68%
    13:00 +24°C° 0 mm 3 m/S 745 mmHg 65%
    14:00 +25°C° 0 mm 3 m/S 745 mmHg 63%
    15:00 +24°C° 0.1 mm 3 m/S 745 mmHg 66%
    16:00 +24°C° 0.1 mm 3 m/S 745 mmHg 69%
    17:00 +22°C° 0.1 mm 3 m/S 744 mmHg 72%
    18:00 +21°C° 0.4 mm 3 m/S 744 mmHg 79%
    19:00 +19°C° 0.4 mm 3 m/S 744 mmHg 85%
    20:00 +18°C° 0.4 mm 3 m/S 744 mmHg 92%
    21:00 +17°C° 0 mm 2 m/S 744 mmHg 93%
    22:00 +16°C° 0 mm 2 m/S 744 mmHg 95%
    23:00 +15°C° 0 mm 2 m/S 744 mmHg 97%

    Morgen, 25 Mai, Samstag

    Zeit Temperatur Niederschläge Wind Luftdruck Luftfeuchtigkeit
    00:00 +15°C° 0 mm 2 m/S 744 mmHg 97%
    01:00 +14°C° 0 mm 2 m/S 744 mmHg 97%
    02:00 +14°C° 0 mm 2 m/S 744 mmHg 98%
    03:00 +14°C° 0 mm 2 m/S 744 mmHg 98%
    04:00 +13°C° 0 mm 2 m/S 744 mmHg 98%
    05:00 +13°C° 0 mm 2 m/S 744 mmHg 98%
    06:00 +15°C° 0 mm 2 m/S 744 mmHg 93%
    07:00 +16°C° 0 mm 3 m/S 744 mmHg 89%
    08:00 +17°C° 0 mm 3 m/S 744 mmHg 84%
    09:00 +19°C° 0 mm 3 m/S 744 mmHg 77%
    10:00 +20°C° 0 mm 4 m/S 744 mmHg 71%
    11:00 +22°C° 0 mm 4 m/S 744 mmHg 64%
    12:00 +22°C° 0 mm 4 m/S 744 mmHg 60%
    13:00 +23°C° 0 mm 5 m/S 744 mmHg 56%
    14:00 +23°C° 0 mm 5 m/S 744 mmHg 53%
    15:00 +23°C° 0 mm 4 m/S 744 mmHg 53%
    16:00 +22°C° 0 mm 4 m/S 743 mmHg 53%
    17:00 +22°C° 0 mm 4 m/S 743 mmHg 54%
    18:00 +20°C° 0 mm 3 m/S 743 mmHg 61%
    19:00 +19°C° 0 mm 2 m/S 744 mmHg 68%
    20:00 +17°C° 0 mm 2 m/S 744 mmHg 75%
    21:00 +16°C° 0 mm 2 m/S 744 mmHg 78%
    22:00 +15°C° 0 mm 2 m/S 744 mmHg 82%
    23:00 +14°C° 0 mm 2 m/S 744 mmHg 85%

    übermorgen, 26 Mai, Sonntag

    Zeit Temperatur Niederschläge Wind Luftdruck Luftfeuchtigkeit
    00:00 +14°C° 0 mm 2 m/S 745 mmHg 88%
    01:00 +13°C° 0 mm 2 m/S 745 mmHg 92%
    02:00 +13°C° 0 mm 2 m/S 745 mmHg 95%
    03:00 +12°C° 0 mm 2 m/S 745 mmHg 94%
    04:00 +12°C° 0 mm 2 m/S 745 mmHg 93%
    05:00 +10°C° 0 mm 2 m/S 745 mmHg 91%
    06:00 +13°C° 0 mm 2 m/S 746 mmHg 83%
    07:00 +15°C° 0 mm 2 m/S 746 mmHg 75%
    08:00 +16°C° 0 mm 2 m/S 746 mmHg 67%
    09:00 +17°C° 0 mm 3 m/S 746 mmHg 64%
    10:00 +19°C° 0 mm 3 m/S 746 mmHg 62%
    11:00 +20°C° 0 mm 4 m/S 746 mmHg 59%
    12:00 +20°C° 0 mm 4 m/S 746 mmHg 57%
    13:00 +21°C° 0 mm 4 m/S 745 mmHg 55%
    14:00 +21°C° 0 mm 5 m/S 745 mmHg 53%
    15:00 +21°C° 0 mm 5 m/S 745 mmHg 55%
    16:00 +21°C° 0 mm 5 m/S 745 mmHg 56%
    17:00 +21°C° 0 mm 5 m/S 745 mmHg 58%
    18:00 +20°C° 0.1 mm 4 m/S 745 mmHg 65%
    19:00 +18°C° 0.1 mm 4 m/S 745 mmHg 72%
    20:00 +17°C° 0.1 mm 3 m/S 745 mmHg 79%
    21:00 +16°C° 0 mm 3 m/S 745 mmHg 83%
    22:00 +14°C° 0 mm 3 m/S 745 mmHg 87%
    23:00 +14°C° 0 mm 3 m/S 746 mmHg 92%

    27 Mai, Montag

    Zeit Temperatur Niederschläge Wind Luftdruck Luftfeuchtigkeit
    00:00 +13°C° 0 mm 3 m/S 746 mmHg 93%
    01:00 +13°C° 0 mm 2 m/S 746 mmHg 94%
    02:00 +12°C° 0 mm 2 m/S 746 mmHg 95%
    03:00 +12°C° 0 mm 2 m/S 747 mmHg 95%
    04:00 +11°C° 0 mm 1 m/S 747 mmHg 94%
    05:00 +11°C° 0 mm 1 m/S 747 mmHg 94%
    06:00 +13°C° 0 mm 2 m/S 747 mmHg 85%
    07:00 +15°C° 0 mm 2 m/S 747 mmHg 77%
    08:00 +17°C° 0 mm 3 m/S 748 mmHg 68%
    09:00 +18°C° 0 mm 3 m/S 748 mmHg 64%
    10:00 +20°C° 0 mm 4 m/S 748 mmHg 59%
    11:00 +21°C° 0 mm 4 m/S 748 mmHg 54%
    12:00 +22°C° 0 mm 4 m/S 747 mmHg 53%
    13:00 +23°C° 0 mm 4 m/S 747 mmHg 53%
    14:00 +25°C° 0 mm 4 m/S 747 mmHg 53%
    15:00 +25°C° 0.1 mm 4 m/S 747 mmHg 56%
    16:00 +25°C° 0.1 mm 4 m/S 746 mmHg 60%
    17:00 +25°C° 0.1 mm 4 m/S 746 mmHg 63%
    18:00 +22°C° 0.1 mm 3 m/S 746 mmHg 71%
    19:00 +21°C° 0.1 mm 3 m/S 746 mmHg 79%
    20:00 +19°C° 0.1 mm 2 m/S 746 mmHg 87%
    21:00 +19°C° 0.4 mm 2 m/S 746 mmHg 89%
    22:00 +18°C° 0.4 mm 2 m/S 746 mmHg 91%
    23:00 +18°C° 0.4 mm 2 m/S 746 mmHg 93%

    28 Mai, Dienstag

    Zeit Temperatur Niederschläge Wind Luftdruck Luftfeuchtigkeit
    00:00 +18°C° 0 mm 2 m/S 746 mmHg 93%
    01:00 +18°C° 0 mm 1 m/S 746 mmHg 94%
    02:00 +18°C° 0 mm 1 m/S 746 mmHg 94%
    03:00 +18°C° 0 mm 1 m/S 746 mmHg 94%
    04:00 +18°C° 0 mm 1 m/S 746 mmHg 94%
    05:00 +18°C° 0 mm 2 m/S 746 mmHg 94%
    06:00 +18°C° 0 mm 2 m/S 746 mmHg 91%
    07:00 +19°C° 0 mm 2 m/S 745 mmHg 89%
    08:00 +20°C° 0 mm 2 m/S 745 mmHg 87%
    09:00 +21°C° 0.4 mm 3 m/S 745 mmHg 84%
    10:00 +22°C° 0.4 mm 4 m/S 745 mmHg 82%
    11:00 +23°C° 0.4 mm 5 m/S 745 mmHg 80%
    12:00 +25°C° 0.5 mm 4 m/S 745 mmHg 78%
    13:00 +25°C° 0.5 mm 4 m/S 745 mmHg 76%
    14:00 +26°C° 0.5 mm 4 m/S 744 mmHg 73%
    15:00 +26°C° 1.2 mm 3 m/S 744 mmHg 74%
    16:00 +26°C° 1.2 mm 3 m/S 744 mmHg 76%
    17:00 +26°C° 1.2 mm 3 m/S 744 mmHg 77%
    18:00 +24°C° 1.1 mm 3 m/S 744 mmHg 79%
    19:00 +22°C° 1.1 mm 3 m/S 744 mmHg 81%
    20:00 +21°C° 1.1 mm 2 m/S 744 mmHg 84%
    21:00 +20°C° 0 mm 3 m/S 744 mmHg 85%
    22:00 +20°C° 0 mm 3 m/S 744 mmHg 86%
    23:00 +19°C° 0 mm 4 m/S 744 mmHg 87%

    29 Mai, Mittwoch

    Zeit Temperatur Niederschläge Wind Luftdruck Luftfeuchtigkeit
    00:00 +19°C° 0 mm 4 m/S 744 mmHg 87%
    01:00 +18°C° 0 mm 4 m/S 743 mmHg 87%
    02:00 +18°C° 0 mm 4 m/S 743 mmHg 86%
    03:00 +17°C° 0.3 mm 4 m/S 743 mmHg 88%
    04:00 +17°C° 0.3 mm 3 m/S 743 mmHg 89%
    05:00 +17°C° 0.3 mm 3 m/S 743 mmHg 91%
    06:00 +18°C° 0.2 mm 3 m/S 743 mmHg 89%
    07:00 +19°C° 0.2 mm 4 m/S 743 mmHg 87%
    08:00 +20°C° 0.2 mm 4 m/S 744 mmHg 86%
    09:00 +22°C° 0 mm 4 m/S 744 mmHg 79%
    10:00 +25°C° 0 mm 4 m/S 744 mmHg 72%
    11:00 +27°C° 0 mm 4 m/S 744 mmHg 65%
    12:00 +27°C° 0 mm 4 m/S 744 mmHg 62%
    13:00 +28°C° 0 mm 5 m/S 744 mmHg 58%
    14:00 +28°C° 0 mm 5 m/S 744 mmHg 55%
    15:00 +28°C° 0.2 mm 5 m/S 744 mmHg 58%
    16:00 +27°C° 0.2 mm 4 m/S 744 mmHg 61%
    17:00 +27°C° 0.2 mm 4 m/S 744 mmHg 64%
    18:00 +25°C° 0 mm 3 m/S 744 mmHg 70%
    19:00 +23°C° 0 mm 2 m/S 745 mmHg 77%
    20:00 +22°C° 0 mm 1 m/S 745 mmHg 83%
    21:00 +21°C° 0 mm 1 m/S 745 mmHg 85%
    22:00 +20°C° 0 mm 1 m/S 746 mmHg 88%
    23:00 +19°C° 0 mm 1 m/S 746 mmHg 90%
    Mehr zeigen